Glencoe, MN

7:08 AM CST on December 16, 2019 (GMT -0600)
Glencoe Municipal

Weather History for KGYL - October, 2019

Change the Weather History Date:

Saturday, October 12, 2019

  Actual Average (KHCD) Record (KHCD)
Temperature  
Mean Temperature 35 °F -  
Max Temperature 38 °F 62 °F 84 °F (1975)
Min Temperature 32 °F 36 °F 19 °F (2012)
Degree Days  
Heating Degree Days 30    
Moisture  
Dew Point 30 °F    
Average Humidity 81    
Maximum Humidity 95    
Minimum Humidity 74    
Precipitation  
Precipitation 0.00 in - - ()
Sea Level Pressure  
Sea Level Pressure 29.64 in    
Wind  
Wind Speed 12 mph (SW)    
Max Wind Speed 18 mph    
Max Gust Speed 29 mph    
Visibility 9 miles    
Events Rain , Snow    
Averages and records for this station are not official NWS values.
T = Trace of Precipitation, MM = Missing Value Source: NWS Daily Summary

Daily Weather History Graph

Daily Weather History Graph

Search for Another Location

Airport or City:

Astronomy

Oct. 12, 2019 Rise Set
Actual Time 7:27 AM CDT 6:37 PM CDT
Civil Twilight 6:58 AM CDT 7:06 PM CDT
Nautical Twilight 6:24 AM CDT 7:40 PM CDT
Astronomical Twilight 5:50 AM CDT 8:14 PM CDT
Moon 6:38 PM CDT (10/12) 5:59 AM CDT (10/12)
Length of Visible Light 12h 08m
Length of Day
11h 09m
Waxing Gibbous, 99% of the Moon is Illuminated
Oct 12
Waxing Gibbous
Oct 13
Full
Oct 21
Last Quarter
Oct 27
New
Nov 4
First Quarter

Hourly Weather History & Observations

Time (CDT) Temp. Windchill Dew Point Humidity Pressure Visibility Wind Dir Wind Speed Gust Speed Precip Events Conditions
12:15 AM 33.8 °F 25.3 °F 31.8 °F 92% 29.73 in 10.0 mi SW 11.5 mph 20.7 mph N/A Snow Light Snow
12:38 AM 34.0 °F 24.6 °F 30.2 °F 86% 29.72 in 10.0 mi SW 13.8 mph 26.5 mph N/A   Overcast
12:56 AM 34.7 °F 24.7 °F 29.3 °F 81% 29.71 in 10.0 mi SW 16.1 mph 28.8 mph N/A   Overcast
1:15 AM 34.7 °F 26.9 °F 29.1 °F 80% 29.70 in 10.0 mi SSW 10.4 mph 23.0 mph N/A   Overcast
1:16 AM 34.7 °F 26.4 °F 28.9 °F 79% 29.70 in 10.0 mi SW 11.5 mph 23.0 mph N/A   Overcast
1:39 AM 34.5 °F 26.7 °F 28.4 °F 78% 29.70 in 10.0 mi SW 10.4 mph 21.9 mph N/A   Overcast
1:55 AM 34.2 °F 25.2 °F 28.4 °F 79% 29.70 in 10.0 mi SW 12.7 mph 24.2 mph N/A   Mostly Cloudy
2:15 AM 33.8 °F 25.3 °F 28.2 °F 80% 29.70 in 10.0 mi SW 11.5 mph 18.4 mph N/A   Mostly Cloudy
2:16 AM 34.0 °F 25.5 °F 28.2 °F 79% 29.70 in 10.0 mi SW 11.5 mph 18.4 mph N/A   Mostly Cloudy
2:39 AM 34.2 °F 25.2 °F 27.7 °F 77% 29.69 in 10.0 mi SW 12.7 mph 24.2 mph N/A   Scattered Clouds
2:55 AM 34.2 °F 25.2 °F 27.5 °F 77% 29.68 in 10.0 mi SW 12.7 mph 20.7 mph N/A   Mostly Cloudy
3:15 AM 34.0 °F 24.6 °F 27.5 °F 77% 29.68 in 10.0 mi SW 13.8 mph 20.7 mph N/A   Scattered Clouds
3:16 AM 34.0 °F 25.5 °F 27.5 °F 77% 29.68 in 10.0 mi SW 11.5 mph 20.7 mph N/A   Scattered Clouds
3:38 AM 34.0 °F 26.6 °F 27.5 °F 77% 29.67 in 10.0 mi SW 9.2 mph 18.4 mph N/A   Clear
3:56 AM 33.8 °F 24.8 °F 27.5 °F 78% 29.66 in 10.0 mi SW 12.7 mph 20.7 mph N/A   Clear
4:15 AM 33.8 °F 25.8 °F 27.5 °F 78% 29.66 in 10.0 mi SW 10.4 mph 20.7 mph N/A   Scattered Clouds
4:16 AM 33.8 °F 25.8 °F 27.5 °F 78% 29.66 in 10.0 mi SW 10.4 mph 20.7 mph N/A   Scattered Clouds
4:35 AM 33.6 °F 25.0 °F 27.5 °F 78% 29.65 in 10.0 mi SW 11.5 mph 24.2 mph N/A   Overcast
4:39 AM 33.4 °F 24.8 °F 27.5 °F 79% 29.65 in 10.0 mi SW 11.5 mph 24.2 mph N/A   Overcast
4:56 AM 33.8 °F 24.8 °F 27.5 °F 78% 29.65 in 10.0 mi SW 12.7 mph 23.0 mph N/A   Overcast
5:15 AM 33.4 °F 24.3 °F 27.5 °F 79% 29.65 in 10.0 mi SW 12.7 mph 23.0 mph N/A   Overcast
5:16 AM 33.4 °F 24.8 °F 27.5 °F 79% 29.65 in 10.0 mi SW 11.5 mph 23.0 mph N/A   Overcast
5:35 AM 33.6 °F 24.1 °F 27.5 °F 78% 29.64 in 10.0 mi SW 13.8 mph 24.2 mph N/A   Overcast
6:16 AM 33.6 °F 25.6 °F 28.2 °F 81% 29.63 in 10.0 mi SSW 10.4 mph 23.0 mph N/A   Overcast
6:35 AM 34.0 °F 25.0 °F 28.4 °F 80% 29.63 in 10.0 mi SW 12.7 mph 23.0 mph N/A   Overcast
6:36 AM 34.0 °F 25.0 °F 28.4 °F 80% 29.63 in 10.0 mi SW 12.7 mph 23.0 mph N/A   Overcast
6:55 AM 33.8 °F 26.4 °F 28.8 °F 82% 29.63 in 7.0 mi SSW 9.2 mph 25.3 mph N/A   Overcast
7:00 AM 33.8 °F 25.8 °F 28.9 °F 82% 29.63 in 10.0 mi SW 10.4 mph 26.5 mph N/A   Overcast
7:16 AM 33.4 °F 24.3 °F 29.5 °F 85% 29.62 in 7.0 mi SW 12.7 mph 20.7 mph N/A   Overcast
7:36 AM 33.3 °F 25.1 °F 30.0 °F 88% 29.62 in 5.0 mi SW 10.4 mph 20.7 mph N/A Snow Light Snow
7:55 AM 33.1 °F 23.9 °F 30.9 °F 92% 29.62 in 3.0 mi SSW 12.7 mph 19.6 mph N/A Snow Light Snow
7:56 AM 32.9 °F 23.2 °F 30.9 °F 92% 29.62 in 3.0 mi SSW 13.8 mph 19.6 mph N/A Snow Light Snow
8:18 AM 32.9 °F 23.7 °F 31.6 °F 95% 29.61 in 2.5 mi SSW 12.7 mph 20.7 mph N/A Snow Light Snow
8:35 AM 33.1 °F 24.9 °F 31.6 °F 94% 29.61 in 3.0 mi SSW 10.4 mph 19.6 mph N/A Snow Light Snow
8:59 AM 33.8 °F 25.8 °F 32.0 °F 93% 29.60 in 2.5 mi SW 10.4 mph 20.7 mph N/A Snow Light Snow
9:59 AM 33.8 °F 25.3 °F 32.0 °F 93% 29.58 in 7.0 mi SW 11.5 mph 18.4 mph N/A   Overcast
10:59 AM 35.6 °F 26.6 °F 32.0 °F 87% 29.59 in 10.0 mi SW 13.8 mph 24.2 mph N/A   Overcast
11:39 AM 36.9 °F 27.5 °F 31.5 °F 81% 29.59 in 10.0 mi SW 16.1 mph 25.3 mph N/A   Overcast
11:57 AM 37.4 °F 28.5 °F 30.9 °F 77% 29.59 in 10.0 mi SW 15.0 mph 23.0 mph N/A   Overcast
12:15 PM 37.0 °F 28.5 °F 31.1 °F 79% 29.59 in 10.0 mi SW 13.8 mph 20.7 mph N/A Snow Light Snow
12:35 PM 36.7 °F 28.0 °F 32.0 °F 83% 29.59 in 7.0 mi SW 13.8 mph 24.2 mph N/A Snow Light Snow
12:36 PM 36.7 °F 27.6 °F 32.0 °F 83% 29.59 in 5.0 mi SW 15.0 mph 23.0 mph N/A Snow Light Snow
12:57 PM 36.0 °F 27.5 °F 33.1 °F 89% 29.58 in 3.0 mi SW 12.7 mph 21.9 mph N/A Snow Light Snow
1:15 PM 36.3 °F 27.1 °F 33.3 °F 89% 29.58 in 5.0 mi SW 15.0 mph 23.0 mph N/A Rain Light Rain
1:35 PM 36.5 °F 28.7 °F 33.8 °F 90% 29.58 in 7.0 mi SW 11.5 mph 26.5 mph N/A   Drizzle
1:36 PM 36.5 °F 27.8 °F 33.8 °F 90% 29.58 in 7.0 mi SW 13.8 mph 26.5 mph N/A   Drizzle
1:58 PM 36.9 °F 29.1 °F 32.9 °F 86% 29.58 in 10.0 mi SW 11.5 mph 25.3 mph N/A   Overcast
2:16 PM 36.9 °F 29.1 °F 32.5 °F 84% 29.58 in 7.0 mi SW 11.5 mph 23.0 mph N/A   Overcast
2:35 PM 37.0 °F 27.0 °F 32.0 °F 82% 29.58 in 10.0 mi SW 18.4 mph 24.2 mph N/A   Overcast
2:36 PM 37.0 °F 27.7 °F 32.0 °F 82% 29.58 in 10.0 mi WSW 16.1 mph 24.2 mph N/A   Overcast
2:55 PM 37.8 °F 28.3 °F 32.0 °F 80% 29.58 in 10.0 mi SW 17.3 mph 26.5 mph N/A   Overcast
2:59 PM 37.8 °F 28.3 °F 32.0 °F 80% 29.58 in 10.0 mi SW 17.3 mph 26.5 mph N/A   Overcast
3:18 PM 37.8 °F 29.8 °F 32.0 °F 80% 29.58 in 10.0 mi SW 12.7 mph 23.0 mph N/A   Overcast
3:35 PM 38.3 °F 30.5 °F 31.8 °F 77% 29.59 in 10.0 mi SW 12.7 mph 27.6 mph N/A   Overcast
3:55 PM 38.7 °F 31.4 °F 31.1 °F 74% 29.59 in 10.0 mi WSW 11.5 mph 24.2 mph N/A   Overcast
3:56 PM 38.7 °F 30.5 °F 31.1 °F 74% 29.59 in 10.0 mi WSW 13.8 mph 24.2 mph N/A   Overcast
4:15 PM 38.5 °F 30.7 °F 31.1 °F 75% 29.59 in 10.0 mi WSW 12.7 mph 24.2 mph N/A   Overcast
4:56 PM 38.5 °F 29.9 °F 30.7 °F 74% 29.60 in 10.0 mi WSW 15.0 mph 28.8 mph N/A   Overcast
5:15 PM 38.1 °F 29.1 °F 31.3 °F 76% 29.61 in 10.0 mi WSW 16.1 mph 26.5 mph N/A   Overcast
5:39 PM 37.4 °F 30.3 °F 32.0 °F 81% 29.61 in 10.0 mi SW 10.4 mph 19.6 mph N/A   Overcast
5:56 PM 37.8 °F 29.4 °F 31.1 °F 77% 29.62 in 10.0 mi WSW 13.8 mph 21.9 mph N/A   Overcast
6:15 PM 37.6 °F 29.6 °F 30.9 °F 77% 29.63 in 10.0 mi WSW 12.7 mph 19.6 mph N/A   Overcast
6:16 PM 37.6 °F 29.6 °F 30.9 °F 77% 29.63 in 10.0 mi WSW 12.7 mph 19.6 mph N/A   Overcast
6:38 PM 36.9 °F 27.8 °F 31.8 °F 82% 29.63 in 10.0 mi WSW 15.0 mph 24.2 mph N/A   Overcast
6:55 PM 36.7 °F 28.4 °F 31.8 °F 83% 29.64 in 10.0 mi WSW 12.7 mph 20.7 mph N/A Snow Light Snow
7:15 PM 36.7 °F 28.9 °F 31.8 °F 83% 29.65 in 10.0 mi WSW 11.5 mph 18.4 mph N/A   Overcast
7:16 PM 36.7 °F 28.9 °F 31.8 °F 83% 29.65 in 10.0 mi WSW 11.5 mph 18.4 mph N/A   Overcast
7:38 PM 36.9 °F 30.1 °F 31.6 °F 81% 29.65 in 10.0 mi WSW 9.2 mph 18.4 mph N/A   Overcast
7:55 PM 37.0 °F 31.6 °F 31.1 °F 79% 29.65 in 10.0 mi WSW 6.9 mph 16.1 mph N/A   Overcast
7:56 PM 37.0 °F 31.0 °F 31.1 °F 79% 29.65 in 10.0 mi WSW 8.1 mph 16.1 mph N/A   Overcast
8:15 PM 37.4 °F 30.8 °F 30.9 °F 77% 29.65 in 10.0 mi WSW 9.2 mph 16.1 mph N/A   Overcast
8:16 PM 37.4 °F 31.4 °F 30.9 °F 77% 29.65 in 10.0 mi WSW 8.1 mph 16.1 mph N/A   Overcast
8:38 PM 37.2 °F 31.2 °F 30.7 °F 77% 29.66 in 10.0 mi WSW 8.1 mph 23.0 mph N/A   Overcast
8:55 PM 36.9 °F 28.7 °F 30.9 °F 79% 29.66 in 10.0 mi West 12.7 mph 19.6 mph N/A   Overcast
9:15 PM 36.9 °F 30.1 °F 31.1 °F 80% 29.66 in 10.0 mi WSW 9.2 mph 19.6 mph N/A   Overcast
9:16 PM 36.9 °F 30.1 °F 31.1 °F 80% 29.66 in 10.0 mi West 9.2 mph 19.6 mph N/A   Overcast
9:39 PM 36.7 °F 28.4 °F 31.1 °F 80% 29.65 in 10.0 mi WSW 12.7 mph 19.6 mph N/A   Overcast
9:57 PM 36.5 °F 29.2 °F 31.3 °F 81% 29.66 in 10.0 mi West 10.4 mph 16.1 mph N/A   Overcast
10:15 PM 36.5 °F 28.2 °F 31.3 °F 81% 29.66 in 10.0 mi WSW 12.7 mph 18.4 mph N/A   Overcast
10:35 PM 36.5 °F 29.7 °F 31.1 °F 81% 29.66 in 10.0 mi West 9.2 mph 18.4 mph N/A   Overcast
10:58 PM 36.5 °F 27.8 °F 30.6 °F 79% 29.66 in 10.0 mi West 13.8 mph 21.9 mph N/A   Overcast
11:15 PM 36.7 °F 29.9 °F 30.2 °F 77% 29.66 in 10.0 mi WSW 9.2 mph 19.6 mph N/A   Overcast
11:35 PM 35.6 °F 28.6 °F 32.0 °F 87% 29.66 in 10.0 mi WSW 9.2 mph 18.4 mph N/A   Overcast
11:36 PM 35.6 °F 28.6 °F 32.0 °F 87% 29.66 in 10.0 mi WSW 9.2 mph 18.4 mph N/A   Overcast
11:58 PM 35.6 °F 28.6 °F 31.8 °F 86% 29.66 in 10.0 mi WSW 9.2 mph 18.4 mph N/A   Overcast